Location: *
(52.2090°N, 4.1550°W)
Time: 23:13:27
(UTC+00:00)

Cosmos 2084 Rocket - Pass Details

Date: 19 July 2019
Orbit: 567 x 614 km, 62.8° (Epoch: 18 August)

Event Time Altitude Azimuth Distance (km) Brightness Sun altitude
Rises 21:16:01 0° 312° (NW) 2,867 9.6 -6.5°
Reaches altitude 10° 21:18:19 10° 315° (NW) 1,954 8.0 -6.7°
Maximum altitude 21:22:44 73° 40° (NE) 628 3.6 -7.1°
Drops below altitude 10° 21:27:04 10° 126° (SE) 1,914 5.4 -7.6°
Enters shadow 21:27:14 - 126° (SE) 1,982 5.5 -7.6°
